Lexington Weather

Lexington, Massachusetts, USA

45°F
9/19/2020 8:26am 
  • Lexington Conditions: Clear
  • Temperature: 44.8°F / 7.1°CWarmer 1.8°F than last hour.
  • Dew Point: 36.3°FIncreased 1.1°Fsince last hour.
  • Relative Humidity: 72%Decreased 2.0% since last hour.
  • Wind: Wind from NNE NNE Calm, 10-min avg: 1 mph, gust: 2 mph
  • Barometer: 30.26 inRising 0.03  inHg/hr Rising Slowly
  • Visibility: 10 miles
  • Rain Today: 0.00 in
  •   
Southeast Middlesex County - Special Weather Statement
 - SEE ALL NEARBY ALERTS -

Regional Weather Roundup
for Boston / Norton, MA

        
000
ASUS41 KBOX 141405
RWRBOX

REGIONAL WEATHER ROUNDUP
NATIONAL WEATHER SERVICE BOSTON/NORTON MA
1000 AM EDT MON SEP 14 2020

NOTE:  "FAIR" INDICATES FEW OR NO CLOUDS BELOW 12,000 FEET WITH NO 
SIGNIFICANT WEATHER AND/OR OBSTRUCTIONS TO VISIBILITY.

MAZALL-141500-
EASTERN MASSACHUSETTS
  
CITY           SKY/WX    TMP DP  RH WIND       PRES   REMARKS
BOSTON         PTSUNNY   71  55  56 NW13      30.05R                  
BEVERLY        PTSUNNY   71  55  56 NW13G25   30.02R                  
LAWRENCE       PTSUNNY   70  56  61 NW12      30.06R                  
BEDFORD        MOSUNNY   70  56  61 NW10      30.04R                  
BLUE HILL        N/A     69  57  65 NW13G20   30.05R                  
NORWOOD        PTSUNNY   73  56  54 NW10      30.05R                  
MARSHFIELD     MOSUNNY   73  59  60 VRB7G15   30.03R                  
PLYMOUTH       PTSUNNY   72  59  63 NW12G21   30.03R                  
TAUNTON        PTSUNNY   73  59  61 NW6G17    30.03R                  
NEW BEDFORD    PTSUNNY   73  61  65 NW6       30.03R                  
$$

MAZALL-141500-
CAPE COD AND THE ISLANDS
  
CITY           SKY/WX    TMP DP  RH WIND       PRES   REMARKS
FALMOUTH       SUNNY     72  61  68 NW12      30.02R                  
HYANNIS        PTSUNNY   73  60  63 NW12G21   30.00R                  
CHATHAM        PTSUNNY   71  61  70 NW8       30.02R                  
PROVINCETOWN   PTSUNNY   69  62  78 NW12      30.03R                  
NANTUCKET      MOSUNNY   74  63  68 NW12      30.02R                  
MARTHAS VNYRD  CLOUDY    75  62  64 NW13G20   30.02R                  
$$
 
MAZALL-141500-
CENTRAL AND WESTERN MASSACHUSETTS
  
CITY           SKY/WX    TMP DP  RH WIND       PRES   REMARKS
WORCESTER      MOSUNNY   67  54  63 NW13      30.08R                  
FITCHBURG      MOSUNNY   70  52  52 N12G23    30.07R                  
ORANGE         MOSUNNY   68  53  58 N9        30.09R                  
SPRINGFIELD    PTSUNNY   69  55  59 N10       30.08R                  
WESTFIELD      PTSUNNY   69  55  60 NW10      30.09R                  
NORTH ADAMS    MOSUNNY   65  54  67 W8        30.13R                  
PITTSFIELD     MOSUNNY   64  55  72 NW12      30.12R                  
$$
 
RIZALL-141500-
RHODE ISLAND
  
CITY           SKY/WX    TMP DP  RH WIND       PRES   REMARKS
PROVIDENCE     PTSUNNY   73  58  59 NW15      30.05R                  
NEWPORT        PTSUNNY   72  60  66 NW13G21   30.04R                  
BLOCK ISLAND   CLOUDY    70  61  73 NW10G16   30.06R                  
SMITHFIELD     PTSUNNY   69  60  73 NW9       30.07R                  
WESTERLY       CLOUDY    71  58  63 N10G18    30.06R                  
$$
 
CTZALL-141500-
CONNECTICUT
  
CITY           SKY/WX    TMP DP  RH WIND       PRES   REMARKS
BRADLEY INTL   PTSUNNY   69  54  58 NW16G23   30.08R                  
HARTFORD       MOSUNNY   71  53  52 N10       30.08R                  
BRIDGEPORT     PTSUNNY   71  56  58 N15G21    30.09R                  
DANBURY        PTSUNNY   68  53  58 N8G20     30.13R                  
GROTON         PTSUNNY   72  57  59 NW14G21   30.05R                  
NEW HAVEN      PTSUNNY   72  57  59 NW12      30.08R                  
CHESTER        NOT AVBL                                               
MERIDEN        PTSUNNY   71  53  52 N10G20    30.09R                  
WILLIMANTIC    PTSUNNY   71  56  58 N13       30.08R                  
OXFORD         PTSUNNY   66  55  67 NW14G22   30.12R                  
$$

MEZ002-015-021-024-NHZ003-005-008-011-012-014-VTZ005-008-141500-
NORTHERN NEW ENGLAND
  
CITY           SKY/WX    TMP DP  RH WIND       PRES   REMARKS
PORTLAND ME    PTSUNNY   72  55  55 NW12G24   30.01R                  
BANGOR ME      PTSUNNY   66  55  67 NW13      29.98R                  
CONCORD NH     MOSUNNY   69  50  50 NW16G29   30.05R                  
MANCHESTER NH  PTSUNNY   70  51  51 NW17G23   30.04R                  
NASHUA NH      MOSUNNY   69  56  62 NW10G25   30.06R                  
PORTSMOUTH NH  PTSUNNY   70  53  53 W15       30.00R                  
JAFFREY NH     MOSUNNY   65  51  60 NW8       30.09R                  
KEENE NH       PTSUNNY   67  54  63 N15       30.09R                  
BURLINGTON VT  MOSUNNY   60  45  57 NW17      30.17R                  
MT. WASHINGTON FOG       37  37 100 NW64G72     N/A  VSB 1/16WCI  20  
$$

NYZ052-076-141500-
EASTERN NEW YORK
  
CITY           SKY/WX    TMP DP  RH WIND       PRES   REMARKS
ALBANY         MOSUNNY   64  56  75 NW13      30.14R                  
NEW YORK CITY  CLOUDY    72  57  59 NW18      30.10R                  
$$
 
ANZALL-141500-
MARINE OBSERVATIONS
  
STATION/POSITION TIME  TEMP    WIND        PRES    VSBY  WAVE
                       AIR SEA DIR/SP/G                  HT/PER
                 (UTC) (F)     (DEG/KT/KT) (MB)    (MI)  (FT/S)
BOSTON BUOY      1350   67 64  320/ 14/ 16 1015.4R         3/11
BUZZARDS BAY     1300          300/ 12/ 13 1017.7R
NANTUCKET SOUND  1350      71  310/ 14/ 17   N/A           2/ 3
MASS BAY-STELLWA 1304   67     330/ 12/ 16 1013.8R  1 7/8  4/11
ISLE OF SHOALS   1300   67     290/ 17/ 20 1015.0S
S OF BLOCK IS    1326      71                N/A           5/11
$$

......................KEY.........................
  SKY/WX - SKY CONDITION/PRESENT WEATHER
  TMP    - TEMPERATURE IN FAHRENHEIT
  DWPT   - DEWPOINT IN FAHRENHEIT
  RH     - RELATIVE HUMIDITY IN PERCENT
  WIND   - DIRECTION AND SPEED IN MPH
  PRES   - MEAN SEA LEVEL PRESSURE IN INCHES OF HG
  WCI    - WIND CHILL INDEX
  VSB    - VISIBILITY IN MILES
  HX     - HEAT INDEX
  TC     - TEMPERATURE IN CELSIUS
  VRB    - VARIABLE WIND DIRECTION
  N/A    - NOT AVAILABLE
  
      

Other recent Regional Weather Roundups

Sat Sep 19, 8:04am

Sat Sep 19, 7:04am

Sat Sep 19, 6:04am

Sat Sep 19, 5:04am

Sat Sep 19, 4:04am

Sat Sep 19, 3:04am

Sat Sep 19, 2:04am

Sat Sep 19, 1:04am

Sat Sep 19, 12:04am

Fri Sep 18, 11:05pm

Fri Sep 18, 10:04pm

Fri Sep 18, 9:04pm

Fri Sep 18, 8:04pm

Fri Sep 18, 7:04pm

Fri Sep 18, 6:04pm

Fri Sep 18, 5:05pm

Fri Sep 18, 4:04pm

Fri Sep 18, 3:05pm

Fri Sep 18, 2:04pm

Fri Sep 18, 1:04pm

Fri Sep 18, 12:04pm

Fri Sep 18, 11:05am

Fri Sep 18, 10:05am

Fri Sep 18, 9:04am

Fri Sep 18, 8:04am

Fri Sep 18, 7:04am

Fri Sep 18, 6:04am

Fri Sep 18, 5:04am

Fri Sep 18, 4:04am

Fri Sep 18, 3:04am

Fri Sep 18, 2:04am

Fri Sep 18, 1:04am

Fri Sep 18, 12:04am

Thu Sep 17, 11:05pm

Thu Sep 17, 10:04pm

Thu Sep 17, 9:04pm

Thu Sep 17, 8:05pm

Thu Sep 17, 7:04pm

Thu Sep 17, 6:04pm

Thu Sep 17, 5:04pm

Thu Sep 17, 4:04pm

Thu Sep 17, 3:05pm

Thu Sep 17, 2:04pm

Thu Sep 17, 1:04pm

Thu Sep 17, 12:04pm

Thu Sep 17, 11:04am

Thu Sep 17, 10:04am

Thu Sep 17, 9:04am

Thu Sep 17, 8:04am

Thu Sep 17, 7:04am

Thu Sep 17, 6:04am

Thu Sep 17, 5:04am

Thu Sep 17, 4:04am

Thu Sep 17, 3:04am

Thu Sep 17, 2:05am

Thu Sep 17, 1:05am

Thu Sep 17, 12:04am

Wed Sep 16, 11:04pm

Wed Sep 16, 10:04pm

Wed Sep 16, 9:04pm

Wed Sep 16, 8:05pm

Wed Sep 16, 7:04pm

Wed Sep 16, 6:04pm

Wed Sep 16, 5:04pm

Wed Sep 16, 4:04pm

Wed Sep 16, 3:04pm

Wed Sep 16, 2:04pm

Wed Sep 16, 1:04pm

Wed Sep 16, 12:04pm

Wed Sep 16, 11:04am

Wed Sep 16, 10:04am

Wed Sep 16, 9:04am

Wed Sep 16, 8:04am

Wed Sep 16, 7:04am

Wed Sep 16, 6:04am

Wed Sep 16, 5:04am

Wed Sep 16, 4:04am

Wed Sep 16, 3:04am

Wed Sep 16, 2:04am

Wed Sep 16, 1:04am

Wed Sep 16, 12:05am

Tue Sep 15, 11:04pm

Tue Sep 15, 10:04pm

Tue Sep 15, 9:04pm

Tue Sep 15, 8:04pm

Tue Sep 15, 7:04pm

Tue Sep 15, 6:04pm

Tue Sep 15, 5:04pm

Tue Sep 15, 4:05pm

Tue Sep 15, 3:04pm

Tue Sep 15, 2:04pm

Tue Sep 15, 1:04pm

Tue Sep 15, 12:04pm

Tue Sep 15, 11:04am

Tue Sep 15, 10:04am

Tue Sep 15, 9:04am

Tue Sep 15, 8:04am

Tue Sep 15, 7:04am

Tue Sep 15, 6:04am

Tue Sep 15, 5:04am

Tue Sep 15, 4:04am

Tue Sep 15, 3:04am

Tue Sep 15, 2:04am

Tue Sep 15, 1:04am

Tue Sep 15, 12:05am

Mon Sep 14, 11:04pm

Mon Sep 14, 10:04pm

Mon Sep 14, 9:04pm

Mon Sep 14, 8:04pm

Mon Sep 14, 7:04pm

Mon Sep 14, 6:04pm

Mon Sep 14, 5:04pm

Mon Sep 14, 4:05pm

Mon Sep 14, 3:04pm

Mon Sep 14, 2:05pm

Mon Sep 14, 1:04pm

Mon Sep 14, 12:04pm

Mon Sep 14, 11:04am

Mon Sep 14, 9:04am

Mon Sep 14, 8:04am

Mon Sep 14, 7:04am

Mon Sep 14, 6:04am

Mon Sep 14, 5:04am

Mon Sep 14, 4:04am

Mon Sep 14, 3:04am

Mon Sep 14, 2:04am

Mon Sep 14, 1:04am

Mon Sep 14, 12:04am

Sun Sep 13, 11:05pm

Sun Sep 13, 10:04pm

Sun Sep 13, 9:04pm

Sun Sep 13, 8:04pm

Sun Sep 13, 7:05pm

Sun Sep 13, 6:05pm

Sun Sep 13, 5:05pm

Sun Sep 13, 4:04pm

Sun Sep 13, 3:04pm

Sun Sep 13, 2:04pm

Sun Sep 13, 1:04pm

Sun Sep 13, 12:04pm

Sun Sep 13, 11:05am

Sun Sep 13, 10:04am

Sun Sep 13, 9:04am

Sun Sep 13, 8:04am

Sun Sep 13, 7:04am

Sun Sep 13, 6:04am

Sun Sep 13, 5:04am

Sun Sep 13, 4:04am

Sun Sep 13, 3:04am

Sun Sep 13, 2:04am

Sun Sep 13, 1:04am

Sun Sep 13, 12:04am

Sat Sep 12, 11:04pm

Sat Sep 12, 10:04pm

Sat Sep 12, 9:04pm

Sat Sep 12, 8:04pm

Sat Sep 12, 7:05pm

Sat Sep 12, 6:04pm

Sat Sep 12, 5:04pm

Sat Sep 12, 4:05pm

Sat Sep 12, 3:04pm

Sat Sep 12, 2:04pm

Sat Sep 12, 1:05pm

Sat Sep 12, 12:04pm

Sat Sep 12, 11:04am

Sat Sep 12, 10:04am

Sat Sep 12, 9:04am

Meta data:

ID: e0d0a561-656a-4a73-a21b-611e59fc4a3b
Link: https://api.weather.gov/products/e0d0a561-656a-4a73-a21b-611e59fc4a3b